カタログに戻る

STARLINK-4090

運用中通信VLEO
NORAD 53165·PAYLOAD·🇺🇸 United States

打ち上げ Jul 17, 2022 から Cape Canaveral Space Force Station

Loading…

次のパス (今後24時間)

TLE

最新Source: CelesTrak SupGP

元期: Sep 14, 2026, 22:05 UTC

1 53165C 22083AK  26257.92062500 -.00001848  00000+0 -52844-4 0  2577
2 53165  53.1603  29.7929 0001148  73.5920 215.5465 15.35415191    12

AllMySatでSTARLINK-4090をリアルタイム追跡

Download on the App Store